Location: Krasnoyarskiy Pitomnik
(51.1333°N, 71.6167°E)
Time: 09:49:11
(UTC+00:00)

ATLAS 2AS CENTAUR R/B - Pass Details

Date: 22 October 2021
Orbit: 958 x 1254 km, 63.7° (Epoch: 01 December)

Event Time Altitude Azimuth Distance (km) Brightness Sun altitude
Exits shadow 21:19:02 39° 10° (N) 1,746 3.9 -41.0°
Drops below altitude 10° 21:24:09 10° 44° (NE) 3,100 5.8 -40.4°
Sets 21:26:58 0° 50° (NE) 4,023 6.6 -40.0°
